TimeMDT,TemperatureF,Dew PointF,Humidity,Sea Level PressureIn,VisibilityMPH,Wind Direction,Wind SpeedMPH,Gust SpeedMPH,PrecipitationIn,Events,Conditions,WindDirDegrees,DateUTC
12:56 AM,68.0,46.0,45,29.82,-9999.0,ENE,8.1,-,N/A,,Unknown,60,2013-08-21 06:56:00
1:56 AM,66.9,46.9,49,29.83,-9999.0,East,8.1,-,N/A,,Unknown,80,2013-08-21 07:56:00
2:56 AM,63.0,48.0,58,29.84,-9999.0,ENE,9.2,-,N/A,,Unknown,60,2013-08-21 08:56:00
3:56 AM,62.1,48.0,60,29.86,-9999.0,ENE,5.8,-,N/A,,Unknown,70,2013-08-21 09:56:00
4:56 AM,63.0,48.0,58,29.86,-9999.0,ENE,4.6,-,N/A,,Unknown,60,2013-08-21 10:56:00
5:56 AM,63.0,50.0,63,29.88,-9999.0,NE,3.5,-,N/A,,Unknown,40,2013-08-21 11:56:00
6:56 AM,61.0,53.1,75,29.88,-9999.0,NE,10.4,-,N/A,,Unknown,40,2013-08-21 12:56:00
7:56 AM,66.0,55.9,70,29.91,-9999.0,NE,4.6,-,N/A,,Unknown,50,2013-08-21 13:56:00
8:56 AM,72.0,55.9,57,29.90,-9999.0,East,5.8,-,N/A,,Unknown,100,2013-08-21 14:56:00
9:56 AM,77.0,54.0,45,29.91,-9999.0,ESE,12.7,-,N/A,,Unknown,120,2013-08-21 15:56:00
10:56 AM,82.0,53.1,37,29.92,-9999.0,SE,11.5,-,N/A,,Unknown,130,2013-08-21 16:56:00
11:56 AM,84.0,55.9,38,29.92,-9999.0,SSE,15.0,18.4,N/A,,Unknown,150,2013-08-21 17:56:00
12:56 PM,84.0,55.0,37,29.93,-9999.0,SSE,17.3,25.3,N/A,,Unknown,160,2013-08-21 18:56:00
1:56 PM,86.0,53.1,32,29.92,-9999.0,SE,17.3,-,N/A,,Unknown,140,2013-08-21 19:56:00
2:56 PM,87.1,53.1,31,29.93,-9999.0,SE,17.3,25.3,N/A,,Unknown,130,2013-08-21 20:56:00
3:56 PM,86.0,57.0,37,29.92,-9999.0,SE,18.4,24.2,N/A,,Unknown,140,2013-08-21 21:56:00
4:56 PM,84.0,57.9,41,29.92,-9999.0,SE,17.3,-,N/A,,Unknown,130,2013-08-21 22:56:00
5:56 PM,82.0,57.9,44,29.93,-9999.0,SE,16.1,-,N/A,,Unknown,130,2013-08-21 23:56:00
6:56 PM,80.1,60.1,50,29.94,-9999.0,ESE,8.1,-,N/A,,Unknown,110,2013-08-22 00:56:00
7:56 PM,75.0,59.0,57,29.96,-9999.0,ESE,9.2,-,N/A,,Unknown,120,2013-08-22 01:56:00
8:56 PM,72.0,57.0,59,29.97,-9999.0,East,9.2,-,N/A,,Unknown,90,2013-08-22 02:56:00
9:56 PM,66.0,55.9,70,29.99,-9999.0,NE,9.2,-,N/A,,Unknown,40,2013-08-22 03:56:00
10:56 PM,64.9,54.0,68,30.00,-9999.0,NE,10.4,-,N/A,,Unknown,40,2013-08-22 04:56:00
11:56 PM,64.0,53.1,67,30.01,-9999.0,NE,12.7,-,N/A,,Unknown,50,2013-08-22 05:56:00